This demonstration page uses our WeatherBlox Daily Observations layout. Learn more.

Hourly Observations for August 26, 2017

Temp ( °F °C ) Dew Point ( °F °C ) Humidity (%) Winds ( mph kmh ) Pressure ( in mb ) Visibility ( mi km ) Precip ( " mm )
12:54 am 00:54 Clear 68 20 61 16.1 78 78 S 13 20 30.04 1017 10 16.0934 0 0
1:54 am 01:54 Clear 67 19.4 61 16.1 81 81 S 8 13 30.05 1018 10 16.0934 0 0
2:54 am 02:54 Clear 67 19.4 61 16.1 81 81 S 10 17 30.07 1018 10 16.0934 0 0
3:54 am 03:54 Clear 67 19.4 62 16.7 84 84 SSE 6 9 30.08 1019 10 16.0934 0 0
4:54 am 04:54 Clear 68 20 61 16.1 78 78 SE 7 11 30.07 1018 10 16.0934 0 0
5:54 am 05:54 Cloudy 67 19.4 61 16.1 81 81 S 8 13 30.09 1019 10 16.0934 0 0
6:54 am 06:54 Cloudy 67 19.4 61 16.1 81 81 NE 9 15 30.06 1018 10 16.0934 0 0
7:54 am 07:54 Sunny 68 20 62 16.7 81 81 SSE 7 11 30.06 1018 10 16.0934 0 0.0254
8:11 am 08:11 Mostly Cloudy 68 20 62 16.7 81 81 SSE 8 13 30.06 1018 10 16.0934 0 0
8:38 am 08:38 Partly Cloudy 70 21.1 63 17.2 79 79 S 9 15 30.06 1018 10 16.0934 0 0
8:54 am 08:54 Mostly Sunny 71 21.7 63 17.2 76 76 S 12 19 30.06 1018 10 16.0934 0 0
9:54 am 09:54 Sunny 74 23.3 65 18.3 74 74 SSW 15 24 30.05 1018 10 16.0934 0 0
10:54 am 10:54 Mostly Sunny 77 25 67 19.4 71 71 SSW 15 24 30.05 1018 10 16.0934 0 0
11:54 am 11:54 Mostly Cloudy 80 26.7 67 19.4 64 64 SSW 12 19 30.04 1017 10 16.0934 0 0
12:54 pm 12:54 Cloudy 82 27.8 68 20 63 63 SSW 13 20 30.03 1017 10 16.0934 0 0
1:54 pm 13:54 Sunny 84 28.9 68 20 59 59 SSW 16 26 30.02 1017 10 16.0934 0 0
2:54 pm 14:54 Partly Cloudy 86 30 69 20.6 57 57 SSW 10 17 30 1016 10 16.0934 0 0
3:54 pm 15:54 Mostly Cloudy 88 31.1 68 20 52 52 WSW 10 17 29.99 1016 10 16.0934 0 0
4:54 pm 16:54 Partly Cloudy 87 30.6 68 20 53 53 SW 9 15 29.99 1016 10 16.0934 0 0
5:54 pm 17:54 Mostly Sunny 88 31.1 68 20 52 52 WSW 6 9 29.98 1015 10 16.0934 0 0
6:54 pm 18:54 Mostly Cloudy 86 30 68 20 55 55 W 5 7 29.99 1016 10 16.0934 0 0
7:54 pm 19:54 Sunny 85 29.4 69 20.6 59 59 Calm 29.98 1015 10 16.0934 0 0
8:54 pm 20:54 Partly Cloudy 77 25 72 22.2 85 85 ENE 7 11 30 1016 10 16.0934 0 0
9:54 pm 21:54 Clear 76 24.4 72 22.2 88 88 N 5 7 30.03 1017 10 16.0934 0 0
10:54 pm 22:54 Partly Cloudy 77 25 72 22.2 85 85 E 3 6 30.03 1017 10 16.0934 0 0
11:54 pm 23:54 Clear 75 23.9 71 21.7 88 88 NE 7 11 30.02 1017 10 16.0934 0 0

Powered by AerisWeather